User: anonymous   Login
Location: Falconara Alta
(43.6167°N, 13.4000°E)
Time: 18:03:13
(UTC+00:00)
Language:

BREEZE-M DEB (TANK) - Orbit

View from above orbital plane
View from above orbital plane
View from above satellite
View from above satellite

Ground track
Ground track

The orbit data is extracted from the following two-line orbital elements,

1 37845U 11059C   20184.70033841 +.00000785 +00000-0 +14467-3 0  9999
2 37845 049.7260 018.2492 4598064 151.8414 243.4928 06.29209293197622
Epoch (UTC): 02 July 2020 16:48:29
Eccentricity: 0.4598064
inclination: 49.7260°
perigee height: 317 km
apogee height: 11714 km
right ascension of ascending node: 18.2492°
argument of perigee: 151.8414°
revolutions per day: 6.29209293
mean anomaly at epoch: 243.4928°
orbit number at epoch: 19762

The dashed part of the orbit path shows where the satellite is in the earth's shadow,  

DLR